[[{"header":{"parameterUnit":"m.s-1","parameterCategory":1,"la1":30.2991,"la2":30.254,"lo1":-89.0895,"lo2":-89.0444,"dy":0.0017,"dx":0.0017,"nx":28,"ny":28,"refTime":"2023-09-09T03:00:00:Z","depth":0,"parameterNumber":2,"parameterNumberName":"U-component_of_WINDS"},"data":[0,0,0,0,0,0,0,0,0,0,0,0,0,0,0,0,0,0,0,0,0,0,0,0,0,0,0,0,0,0,0,0,0,0,0,0,0,0,0,0,0,0,0,0,0,0,0,0,0,0,0,0,0,0,0,0,0,0,0.3802,0.3803,0,0.3842,0.3842,0.3843,0.3879,0.3879,0.388,0.388,0.3921,0.3922,0.3923,0,0,0,0,0,0,0,0,0,0,0,0,0,0.376,0.376,0.3802,0.3803,0.3803,0.3842,0.3842,0.3843,0.3879,0.3879,0.388,0.388,0.3921,0.3922,0.3923,0,0,0,0,0,0,0,0,0,0,0,0,0,0.3787,0.3761,0.3802,0.3826,0.3828,0.3841,0.3842,0.3843,0.3879,0.3879,0.388,0.3881,0.3921,0.3922,0.3923,0.3916,0,0,0.3926,0.3926,0,0,0,0,0,0,0,0,0.3785,0.3788,0.3822,0.3824,0.3827,0.3856,0.3842,0.3867,0.3878,0.386,0.388,0.3881,0.3899,0.3902,0.3908,0.3918,0.3919,0.3926,0.3927,0.3927,0.3927,0,0,0,0,0,0,0,0.3783,0.3787,0.3818,0.3822,0.3825,0.3835,0.384,0.3847,0.3875,0.3861,0.3864,0.3868,0.3901,0.3907,0.3909,0.392,0.3926,0.3927,0.3927,0.3928,0.3927,0.3926,0,0,0,0,0,0,0.3777,0.3785,0.3817,0.3819,0.3807,0.3835,0.384,0.3846,0.3875,0.388,0.3868,0.387,0.3905,0.3908,0.3911,0.3904,0.3927,0.3928,0.3929,0.3928,0.3927,0.3926,0,0,0,0,0,0,0.3776,0.378,0.3815,0.3803,0.3808,0.3835,0.3841,0.3846,0.3853,0.388,0.3885,0.3869,0.3905,0.3909,0.3914,0.3906,0.3928,0.3929,0.3928,0.3927,0.3926,0.3892,0,0,0,0,0,0,0.3775,0.3779,0.3776,0.3802,0.3808,0.3817,0.3841,0.3847,0.3854,0.3857,0.3882,0.3887,0.3906,0.3913,0.3915,0.3908,0.393,0.3929,0.3928,0.3927,0.3894,0.389,0.3886,0,0,0,0,0,0.3773,0.3765,0.3776,0.378,0.3805,0.3817,0.382,0.3842,0.3853,0.3851,0.3869,0.3886,0.3907,0.3913,0.3916,0.3909,0.393,0.3928,0.3927,0.3895,0.389,0.3886,0,0,0,0,0,0,0.3738,0.3769,0.3781,0.3781,0.3796,0.3823,0.382,0.3836,0.3848,0.3851,0.3878,0.3884,0.3886,0.3898,0.3904,0.3904,0.3921,0.392,0.3896,0.3891,0.3888,0.3884,0.3931,0,0,0,0,0,0.373,0.3736,0.3763,0.3761,0.3767,0.3793,0.3798,0.3814,0.3831,0.3837,0.3855,0.3871,0.3881,0.3887,0.3898,0.3896,0.3902,0.3893,0.3889,0.3886,0.3885,0.3885,0.3881,0.3921,0.3921,0.3921,0,0,0.3713,0.3731,0.3733,0.3754,0.3767,0.3773,0.3798,0.3803,0.3808,0.3838,0.3844,0.3858,0.3877,0.3879,0.388,0.3889,0.3875,0.3884,0.3882,0.3882,0.3883,0.3879,0.3876,0.392,0.3921,0.3921,0,0,0.3686,0.3701,0.37,0.3713,0.3733,0.375,0.375,0.3775,0.3785,0.3791,0.3814,0.3821,0.3838,0.3851,0.3859,0.3839,0.3855,0.3842,0.3822,0.3822,0.3819,0.3816,0.3808,0.3805,0.3841,0.3841,0.3841,0,0.3663,0.3673,0.3698,0.3702,0.371,0.3738,0.3738,0.375,0.3772,0.3777,0.3787,0.3809,0.3825,0.383,0.3825,0.3831,0.3832,0.3838,0.3817,0.3815,0.3813,0.3805,0.3803,0.3839,0.3839,0.3839,0.3839,0,0.3644,0.3651,0.3648,0.3669,0.3677,0.3679,0.3704,0.371,0.3725,0.3742,0.3748,0.3767,0.3783,0.3785,0.3801,0.3793,0.3798,0.3812,0.3829,0.3806,0.38,0.3798,0.3836,0.3837,0.3837,0.3838,0,0,0.3594,0.3629,0.3628,0.3638,0.3662,0.3668,0.3672,0.3687,0.3691,0.3706,0.371,0.3725,0.3738,0.3748,0.3765,0.3765,0.3748,0.378,0.3781,0.3773,0.374,0.3728,0.3724,0.3759,0.3759,0.3759,0.3738,0,0.357,0.3578,0.3601,0.3601,0.3608,0.3635,0.3639,0.3655,0.367,0.3679,0.3697,0.3706,0.3723,0.373,0.3731,0.3749,0.3741,0.3751,0.3763,0.3763,0.3756,0.3721,0.3709,0.3688,0.3736,0.3735,0.3735,0,0.3544,0.3557,0.3558,0.3583,0.3587,0.3589,0.3605,0.3613,0.3632,0.3643,0.3655,0.3674,0.368,0.3697,0.3706,0.3712,0.3719,0.3729,0.3728,0.3729,0.3747,0.372,0.3682,0.3678,0.3732,0.3732,0.3732,0,0.3506,0.3524,0.3528,0.3536,0.3565,0.3566,0.3579,0.3598,0.3606,0.362,0.3626,0.3641,0.3648,0.366,0.3683,0.3693,0.3689,0.3708,0.3699,0.3698,0.3695,0.3695,0.3656,0.3701,0.3701,0.3701,0.3701,0,0.3477,0.3476,0.3511,0.3513,0.3514,0.354,0.354,0.3556,0.3573,0.3579,0.3604,0.3609,0.364,0.3648,0.3667,0.3671,0.3675,0.3684,0.3689,0.3681,0.368,0.3685,0.3686,0.3701,0.3701,0.3701,0.3701,0,0.3434,0.3457,0.3463,0.349,0.3498,0.3497,0.3521,0.3524,0.3542,0.3549,0.3552,0.358,0.3591,0.3616,0.3634,0.3647,0.3646,0.3655,0.3639,0.3642,0.3631,0.3632,0.3594,0.359,0.3638,0.3638,0.3637,0,0.3413,0.3413,0.3441,0.3447,0.3458,0.3467,0.3475,0.3502,0.3509,0.3532,0.3532,0.3546,0.3558,0.3575,0.3597,0.3612,0.3621,0.3607,0.3623,0.3615,0.3619,0.3618,0.3618,0.3602,0.3602,0.3601,0.3601,0,0.3373,0.3385,0.3395,0.341,0.3419,0.3432,0.3447,0.345,0.3481,0.3488,0.35,0.3509,0.3528,0.3541,0.3559,0.3573,0.3591,0.3596,0.3594,0.3585,0.3576,0.358,0.3628,0.3596,0.3596,0.3597,0.3597,0.3597,0.334,0.3341,0.3361,0.3373,0.3387,0.34,0.3404,0.3423,0.3433,0.345,0.3466,0.3477,0.3497,0.3523,0.3535,0.3544,0.3553,0.3551,0.3551,0.3549,0.3546,0.3576,0.3547,0.3548,0.3548,0.3548,0.3548,0,0.33,0.3315,0.3325,0.3345,0.3353,0.3371,0.3388,0.3395,0.3403,0.3421,0.3432,0.3446,0.3459,0.3483,0.3498,0.3501,0.351,0.3504,0.3503,0.3506,0.3537,0.3536,0.3496,0.3496,0.3496,0.3496,0.3497,0.3497,0.3281,0.3284,0.3299,0.331,0.3325,0.3335,0.3343,0.3356,0.337,0.3384,0.3395,0.341,0.343,0.3448,0.3461,0.3467,0.3471,0.3462,0.3471,0.3499,0.3504,0.3509,0.3508,0.3463,0.3463,0.344,0.344,0.344]},{"header":{"parameterUnit":"m.s-1","parameterCategory":1,"la1":30.2991,"la2":30.254,"lo1":-89.0895,"lo2":-89.0444,"dy":0.0017,"dx":0.0017,"nx":28,"ny":28,"refTime":"2023-09-09T03:00:00:Z","depth":0,"parameterNumber":3,"parameterNumberName":"V-component_of_WINDS"},"data":[0,0,0,0,0,0,0,0,0,0,0,0,0,0,0,0,0,0,0,0,0,0,0,0,0,0,0,0,0,0,0,0,0,0,0,0,0,0,0,0,0,0,0,0,0,0,0,0,0,0,0,0,0,0,0,0,0,0,-0.7084,-0.7084,0,-0.7078,-0.7078,-0.7078,-0.7079,-0.7079,-0.708,-0.708,-0.707,-0.707,-0.7069,0,0,0,0,0,0,0,0,0,0,0,0,0,-0.7097,-0.7097,-0.7084,-0.7084,-0.7084,-0.7078,-0.7078,-0.7078,-0.7079,-0.7079,-0.708,-0.708,-0.707,-0.707,-0.7069,0,0,0,0,0,0,0,0,0,0,0,0,0,-0.7091,-0.7097,-0.7084,-0.7084,-0.7084,-0.7078,-0.7078,-0.7078,-0.7079,-0.7079,-0.708,-0.708,-0.707,-0.707,-0.7069,-0.7062,0,0,-0.7068,-0.7067,0,0,0,0,0,0,0,0,-0.7092,-0.7091,-0.7084,-0.7084,-0.7084,-0.708,-0.7079,-0.7072,-0.7079,-0.7081,-0.708,-0.708,-0.7073,-0.7072,-0.7071,-0.7062,-0.7061,-0.7068,-0.7067,-0.7067,-0.7067,0,0,0,0,0,0,0,-0.7092,-0.7091,-0.7082,-0.7084,-0.7084,-0.7084,-0.7084,-0.7078,-0.7076,-0.7081,-0.7081,-0.708,-0.7073,-0.7071,-0.707,-0.7061,-0.7068,-0.7067,-0.7067,-0.7067,-0.7051,-0.7051,0,0,0,0,0,0,-0.7093,-0.7092,-0.7082,-0.7082,-0.7089,-0.7084,-0.7083,-0.7081,-0.7076,-0.7075,-0.708,-0.708,-0.7072,-0.7071,-0.707,-0.7064,-0.7067,-0.7066,-0.7066,-0.7051,-0.7051,-0.7051,0,0,0,0,0,0,-0.7093,-0.7092,-0.7082,-0.7087,-0.7085,-0.7084,-0.7081,-0.7081,-0.7079,-0.7076,-0.7075,-0.7079,-0.7072,-0.7071,-0.7065,-0.7064,-0.7066,-0.7066,-0.7051,-0.7051,-0.7051,-0.7051,0,0,0,0,0,0,-0.7094,-0.7092,-0.7089,-0.7087,-0.7085,-0.7078,-0.7081,-0.708,-0.7078,-0.7078,-0.7074,-0.7073,-0.7072,-0.7066,-0.7065,-0.7063,-0.7065,-0.7051,-0.7051,-0.7051,-0.7051,-0.7051,-0.7051,0,0,0,0,0,-0.7094,-0.7088,-0.7089,-0.7088,-0.7081,-0.7077,-0.7077,-0.7076,-0.7078,-0.7075,-0.7074,-0.7074,-0.7064,-0.7066,-0.7064,-0.7062,-0.7051,-0.7051,-0.7051,-0.7051,-0.7051,-0.7051,0,0,0,0,0,0,-0.7088,-0.7087,-0.7088,-0.7081,-0.708,-0.7078,-0.7074,-0.7075,-0.7072,-0.7072,-0.7071,-0.707,-0.7065,-0.7063,-0.7064,-0.7057,-0.7058,-0.7057,-0.7059,-0.7058,-0.7058,-0.7059,-0.7065,0,0,0,0,0,-0.7086,-0.7083,-0.7082,-0.7076,-0.7076,-0.7075,-0.7073,-0.7074,-0.7071,-0.707,-0.7068,-0.7066,-0.7063,-0.706,-0.7057,-0.7051,-0.7051,-0.7049,-0.7049,-0.7049,-0.7048,-0.7049,-0.7048,-0.705,-0.705,-0.705,0,0,-0.7081,-0.7081,-0.7078,-0.7075,-0.7074,-0.7072,-0.7074,-0.7071,-0.7069,-0.7069,-0.7065,-0.7064,-0.7061,-0.7056,-0.7054,-0.7054,-0.7048,-0.7048,-0.7048,-0.7048,-0.7048,-0.7048,-0.7048,-0.705,-0.705,-0.705,0,0,-0.7072,-0.707,-0.7067,-0.7067,-0.7066,-0.7066,-0.7066,-0.7065,-0.7064,-0.7061,-0.7062,-0.706,-0.7054,-0.7053,-0.7052,-0.7047,-0.7048,-0.7046,-0.7045,-0.7045,-0.7045,-0.7045,-0.7046,-0.7046,-0.7046,-0.7046,-0.7046,0,-0.7066,-0.7063,-0.7064,-0.7063,-0.7062,-0.7065,-0.7062,-0.7061,-0.7059,-0.7059,-0.7059,-0.7055,-0.7052,-0.7049,-0.7049,-0.7047,-0.7047,-0.7046,-0.7045,-0.7045,-0.7045,-0.7046,-0.7046,-0.7046,-0.7046,-0.7046,-0.7046,0,-0.7057,-0.7056,-0.7053,-0.7054,-0.7053,-0.705,-0.7052,-0.7051,-0.7052,-0.7053,-0.7051,-0.7049,-0.7047,-0.7047,-0.7046,-0.7045,-0.7045,-0.7045,-0.7046,-0.7045,-0.7046,-0.7046,-0.7046,-0.7046,-0.7046,-0.7046,0,0,-0.7042,-0.7047,-0.7046,-0.7048,-0.7049,-0.7047,-0.7046,-0.7046,-0.7047,-0.7046,-0.7046,-0.7043,-0.7045,-0.7043,-0.7043,-0.7043,-0.7044,-0.7044,-0.7044,-0.7046,-0.7045,-0.7046,-0.7046,-0.7044,-0.7044,-0.7044,-0.7046,0,-0.7035,-0.7034,-0.7037,-0.7035,-0.7035,-0.7039,-0.7039,-0.704,-0.7041,-0.7042,-0.7043,-0.7042,-0.7042,-0.7042,-0.7043,-0.7044,-0.7044,-0.7043,-0.7045,-0.7045,-0.7047,-0.7046,-0.7046,-0.7047,-0.7046,-0.7046,-0.7046,0,-0.7025,-0.7027,-0.7026,-0.7032,-0.7032,-0.7031,-0.7034,-0.7033,-0.7036,-0.7037,-0.7038,-0.704,-0.704,-0.7041,-0.7042,-0.7042,-0.7043,-0.7044,-0.7044,-0.7045,-0.7046,-0.7048,-0.7047,-0.7048,-0.7046,-0.7046,-0.7046,0,-0.7018,-0.7019,-0.702,-0.7022,-0.7027,-0.7027,-0.7029,-0.7032,-0.7033,-0.7035,-0.7036,-0.7037,-0.7038,-0.7039,-0.7042,-0.7042,-0.7044,-0.7044,-0.7046,-0.7046,-0.7046,-0.7046,-0.7047,-0.7045,-0.7045,-0.7045,-0.7045,0,-0.701,-0.701,-0.7018,-0.7018,-0.7019,-0.7023,-0.7024,-0.7026,-0.7029,-0.7031,-0.7034,-0.7035,-0.7038,-0.704,-0.7042,-0.7044,-0.7044,-0.7046,-0.7046,-0.7046,-0.7046,-0.7047,-0.7048,-0.7045,-0.7045,-0.7045,-0.7045,0,-0.7001,-0.7006,-0.7008,-0.7014,-0.7016,-0.7016,-0.7022,-0.7023,-0.7026,-0.7028,-0.7029,-0.7033,-0.7037,-0.704,-0.7042,-0.7044,-0.7047,-0.7047,-0.7047,-0.7048,-0.705,-0.705,-0.7052,-0.7054,-0.7049,-0.7049,-0.7049,0,-0.6996,-0.6997,-0.7005,-0.7007,-0.701,-0.7013,-0.7015,-0.702,-0.7022,-0.7028,-0.7029,-0.7032,-0.7036,-0.7041,-0.7044,-0.7047,-0.7048,-0.7049,-0.7049,-0.705,-0.7051,-0.7051,-0.7053,-0.7049,-0.7049,-0.7049,-0.7049,0,-0.6988,-0.6992,-0.6996,-0.7002,-0.7005,-0.7009,-0.7013,-0.7015,-0.7021,-0.7024,-0.7028,-0.7031,-0.7037,-0.7041,-0.7046,-0.7048,-0.705,-0.705,-0.705,-0.7051,-0.7051,-0.7053,-0.7049,-0.7049,-0.7049,-0.7049,-0.7049,-0.7049,-0.6983,-0.6985,-0.6992,-0.6997,-0.7002,-0.7007,-0.701,-0.7014,-0.7019,-0.7025,-0.7027,-0.7032,-0.7038,-0.7044,-0.7047,-0.7051,-0.7052,-0.7052,-0.7053,-0.7053,-0.7055,-0.705,-0.7052,-0.7052,-0.7052,-0.7052,-0.7052,0,-0.6977,-0.6983,-0.6988,-0.6996,-0.7,-0.7004,-0.701,-0.7013,-0.7018,-0.7024,-0.7028,-0.7035,-0.704,-0.7045,-0.7051,-0.7054,-0.7055,-0.7055,-0.7056,-0.7057,-0.7053,-0.7052,-0.7054,-0.7054,-0.7054,-0.7054,-0.7054,-0.7054,-0.6975,-0.698,-0.6985,-0.6993,-0.6998,-0.7005,-0.7009,-0.7014,-0.7019,-0.7027,-0.7032,-0.7036,-0.7042,-0.7049,-0.7054,-0.7056,-0.7058,-0.7059,-0.706,-0.7057,-0.7056,-0.7056,-0.7056,-0.7059,-0.7059,-0.7064,-0.7064,-0.7064]}]]